Regional Weather Roundup
Issued by NWS

Home | Current Version | Previous Version | Text Only | Print | Product List | Glossary Off
Versions: 1 2 3 4 5 6 7 8 9 10 11 12 13 14 15 16 17 18 19 20 21 22 23 24 25 26 27 28 29 30 31 32 33 34 35 36 37 38 39 40 41 42 43 44 45 46 47 48 49

000
ASUS45 KBOU 311207
RWRCO

WEATHER ROUNDUP FOR COLORADO
NATIONAL WEATHER SERVICE DENVER/BOULDER CO
500 AM MST SAT JAN 31 2015

NOTE: "FAIR" INDICATES FEW OR NO CLOUDS BELOW 12000 FEET WITH NO
SIGNIFICANT WEATHER AND/OR OBSTRUCTIONS TO VISIBILITY.

COZ001>005-013-030-031-311300-
...NORTHWEST COLORADO...

CITY           SKY/WX    TMP DP  RH WIND       PRES   REMARKS
CRAIG          LGT SNOW  33  32  96 CALM      29.90S FOG
HAYDEN         CLOUDY    30  28  93 CALM      29.88S VSB 1/2
MEEKER         SNOW      33  32  96 CALM      29.89S VSB 1/2
MOUNT WERNER   NOT AVBL
STEAMBOAT SPGS CLOUDY    31  30  97 CALM      29.87S
WALDEN         CLOUDY    28  25  86 N3        29.88F
$$

COZ006>008-011-311300-
...WEST CENTRAL VALLEYS...

CITY           SKY/WX    TMP DP  RH WIND       PRES   REMARKS
GRAND JUNCTION LGT RAIN  38  38 100 CALM      29.89S VSB 1/2
MONTROSE       CLOUDY    36  36 100 W3        29.90S FOG
EAGLE          CLOUDY    32  32 100 CALM      29.91S
RIFLE          FOG       36  35  96 CALM      29.89S VSB 1/2
DELTA          LGT RAIN  40  40  99 CALM      29.89S VSB 1/2
NUCLA          LGT SNOW  34  32  93 CALM      29.94S
$$

COZ017>023-064>068-311300-
...SOUTHWEST COLORADO...

CITY           SKY/WX    TMP DP  RH WIND       PRES   REMARKS
DURANGO        LGT SNOW  32  32 100 CALM      29.89S FOG
CORTEZ         CLOUDY    34  33  96 NE5       29.88F WCI  30
PAGOSA SPRINGS LGT SNOW  34  34 100 CALM      29.90F
TELLURIDE      SNOW      30  30 100 W3        29.90S VSB 1/4
WOLF CREEK PAS SNOW      21  21 100 SW10G21   29.96S VSB 1/4 WCI  10
$$

COZ009-010-012-014-032>034-037-058>063-311300-
...CENTRAL COLORADO...

CITY           SKY/WX    TMP DP  RH WIND       PRES   REMARKS
ASPEN          CLOUDY    32  30  92 CALM      29.86F
BUENA VISTA    LGT SNOW  30  29  96 CALM      29.90F
COPPER MTN     CLOUDY    28  21  74 S8        29.92S WCI  20
BERTHOUD PASS  CLOUDY    19  14  79 NW10      29.94S WCI   8
COTTONWOOD PAS LGT SNOW  30  27  86 CALM      29.91F VSB 3/4
GUNNISON       CLOUDY    32  27  80 NE6       29.89F WCI  26
KREMMLING      CLOUDY    30  28  93 CALM      29.90F
LEADVILLE      CLOUDY    23  21  92 CALM      29.90R
MONARCH PASS   FOG       25  23  93 MISG      30.01F VSB<1/4
SALIDA         CLOUDY    32  32  99 CALM      29.97F
SUNLIGHT       CLOUDY    30  28  93 CALM        N/A
WILKERSON PASS CLOUDY   N/A N/A N/A SW5       29.94F
$$

COZ069>075-311300-
...SAN LUIS VALLEY/SANGRE DE CRISTO MOUNTAINS...

CITY           SKY/WX    TMP DP  RH WIND       PRES   REMARKS
ALAMOSA        CLOUDY    29  27  92 CALM      29.90F
LA VETA PASS   LGT SNOW  27  25  93 MISG      29.90F
SAGUACHE       CLOUDY    30  28  93 NE3       29.90F
$$

COZ035-036-038>040-311300-
...NORTHERN COLORADO FRONT RANGE...

CITY           SKY/WX    TMP DP  RH WIND       PRES   REMARKS
DENVER INTL AP CLOUDY    32  24  72 CALM      29.92F
DMNS CITY PARK   N/A     33  24  67 NE1       29.92F
AURORA         CLOUDY    31  25  80 SW2       29.93S
FRONT RANGE AP NOT AVBL
ERIE MUNI ARPT CLOUDY    31  28  89 CALM      29.92F
BOULDER MUN AP CLOUDY    34  27  75 CALM      29.93S
CENTENNIAL     CLOUDY    34  24  67 CALM      29.92F
BROOMFIELD     CLOUDY    34  27  75 CALM      29.93S
FORT COLLINS   MOCLDY    34  25  69 CALM      29.93F
LONGMONT       CLOUDY    34  27  73 CALM      29.95F
$$

COZ041-046-047-076>085-087-088-311300-
...PIKES PEAK/PALMER DIVIDE AND SOUTHERN FOOTHILLS...

CITY           SKY/WX    TMP DP  RH WIND       PRES   REMARKS
COLO. SPRINGS  CLOUDY    35  28  75 E5        29.90F WCI  31
A. F. ACADEMY  CLOUDY    33  26  76 NW8       29.89F WCI  26
ELLICOTT       CLOUDY   N/A N/A N/A N6        29.89F
FALCON         CLOUDY    33  26  74 CALM      29.90F
FORT CARSON    CLOUDY    36  28  73 NW7       29.88F
LIMON          CLOUDY    27  25  92 NW9       29.90F WCI  18
MONUMENT HILL  CLOUDY    30  27  86 NW5       29.90F WCI  25
TRINIDAD       CLOUDY    34  28  79 W13       29.89F WCI  25
$$

COZ042>045-048>051-090-091-311300-
...NORTHEAST COLORADO...

CITY           SKY/WX    TMP DP  RH WIND       PRES   REMARKS
GREELEY ARPT   MOCLDY    32  21  64 NW5       29.91F WCI  27
AKRON          CLOUDY    30  29  96 N6        29.90F WCI  24
BURLINGTON     CLOUDY    34  32  92 SW7       29.90S WCI  28
WRAY           CLOUDY    35  35 100 NE5       29.91F WCI  31
STERLING       CLOUDY    32  32 100 NE3       29.91F
HOLYOKE        NOT AVBL
FORT MORGAN    CLOUDY    31  27  82 N6        29.92F WCI  26
$$

COZ086-089-092>099-311300-
...SOUTHEAST COLORADO...

CITY           SKY/WX    TMP DP  RH WIND       PRES   REMARKS
PUEBLO         CLOUDY    35  34  96 CALM      29.90F
LA JUNTA       CLOUDY    37  36  96 N3        29.89F FOG
LAMAR          CLOUDY    38  37  97 W3        29.90S
SPRINGFIELD      N/A     33  32  96 SW12      29.91F WCI  24
$$


USA.gov is the U.S. government's official web portal to all federal, state and local government web resources and services.